Regional Weather Roundup
Issued by NWS Wakefield, VA

Home | Current Version | Previous Version | Graphics & Text | Print | Product List | Glossary On
Versions: 1 2 3 4 5 6 7 8 9 10 11 12 13 14 15 16 17 18 19 20 21 22 23 24 25 26 27 28 29 30 31 32 33 34 35 36 37 38 39 40 41 42 43 44 45 46 47 48 49 50
000
ASUS41 KAKQ 301710
RWRAKQ

REGIONAL WEATHER ROUNDUP
NATIONAL WEATHER SERVICE WAKEFIELD VA
1200 PM EST FRI JAN 30 2015

Note: "fair" indicates few or no clouds below 12,000 feet with no
significant weather and/or obstructions to visibility. * = Denotes
station may not report precipitation (e.g., rain,snow,etc.),
thunder or fog.

VAZ042-051-052>054-056-301800-
NORTHERN VIRGINIA

CITY           SKY/WX    TMP DP  RH WIND       PRES   REMARKS
WASH NATIONAL  PTSUNNY   40  21  46 NW16G31   30.06S
DULLES         PTSUNNY   37  15  40 NW22G32   30.05S
FORT BELVOIR   CLOUDY    40  17  40 NW24G43   30.06S
QUANTICO       PTSUNNY   40  17  39 N22G33    30.07S
FREDERICKSBRG* CLOUDY    41  18  38 NW16G23   30.05R
STAFFORD*      CLOUDY    39  13  34 NW22G37   30.09S
WARRENTON      CLOUDY    39  23  53 NW23G29   30.05S
CULPEPER*      CLOUDY    39  18  41 N12G22    30.07R
MANASSAS*      CLOUDY    36  21  55 NW22G36   30.07R WCI  24
LEESBURG*      MOSUNNY   36  18  48 NW31G44   30.06S WCI  22
WINCHESTER     CLOUDY    34  16  47 NW20G33   30.07S WCI  22
FRONT ROYAL*   CLOUDY    32  21  64 N12G17    30.08R WCI  23
LURAY*         CLOUDY    36  19  51 N17G30    30.07S
$$

VAZ048-049-060>072-079>083-301800-
CENTRAL AND SOUTH CENTRAL VIRGINIA

CITY           SKY/WX    TMP DP  RH WIND       PRES   REMARKS
RICHMOND       CLOUDY    44  20  38 NW15G26   30.03S
CHESTERFIELD*  CLOUDY    43  18  36 N7G20     30.05S
PETERSBURG*    CLOUDY    44  20  38 NW7G20    30.04S
HANOVER        CLOUDY    42  22  44 NW12G22   30.05S
TAPPAHANNOCK*  CLOUDY    41  20  43 N12       30.04S
QUINTON*       CLOUDY    42  22  44 N8G18     30.03S
CHARLOTTSVILLE PTSUNNY   40  15  36 NW15G24   30.05S
GORDONSVILLE*  PTSUNNY   39  15  36 NW5G22    30.05S
ORANGE*        PTSUNNY   41  18  38 W15G24    30.07R
LOUISA*        PTSUNNY   43  19  39 NW13G20   30.03S
BUMPASS*       CLOUDY    40  20  45 NW7G21    30.04S
FARMVILLE*     MOSUNNY   48  14  25 NW13G21   30.05S
CREWE*         CLOUDY    44  16  32 W18G26    30.05S
FORT PICKETT*  CLOUDY    43  18  37 W16G23    30.04F
CHASE CITY*    FAIR      45  19  35 NW12G22   30.07F
CLARKSVILLE*   FAIR      45  18  33 NW15G30   30.07F
SOUTH HILL*    PTSUNNY   45  17  32 NW10G20   30.12S
LAWRENCEVILLE* CLOUDY    43  20  39 NW9G18    30.05S
EMPORIA*       CLOUDY    45  23  42 W12G17    30.06S
$$

VAZ088>098-301800-
SOUTHEAST VIRGINIA

CITY           SKY/WX    TMP DP  RH WIND       PRES   REMARKS
NORFOLK        CLOUDY    42  25  50 NW8       30.01S
VIRGINIA BEACH PTSUNNY   43  29  57 NW15G22   30.00S
NORFOLK NAVAL  CLOUDY    46  26  45 NW15      30.02F
WEST POINT*    CLOUDY    46  19  34 NW12G21   30.04F
SALUDA*        CLOUDY    41  24  50 N17G26    30.01S
NEWPORT NEWS   CLOUDY    47  23  38 N16G26    30.01F
LANGLEY AFB    CLOUDY    43  24  47 N16       30.01F
FORT EUSTIS    PTSUNNY   46  29  52 N13G20    30.00F
WILLIAMSBURG*    N/A     46  25  42 N13G26    30.02F
HR EXEC AP*    CLOUDY    43  27  52 NW7       30.04F
FRANKLIN*      CLOUDY    42  27  53 N8        30.04S
WAKEFIELD      CLOUDY    45  23  42 MISG      30.03F
$$

VAZ020-022-025-037-045-301800-
WEST CENTRAL AND SOUTHWEST VIRGINIA

CITY           SKY/WX    TMP DP  RH WIND       PRES   REMARKS
STAUNTON*      CLOUDY    36  13  38 NW23      30.08S WCI  24
WAYNESBORO*    CLOUDY    36  16  43 NW22G29   30.04R WCI  24
HOT SPRINGS VA LGT SNOW  21  14  75 W28G38    29.93R WCI   3
LYNCHBURG      MOSUNNY   42  16  34 NW13G20   30.08S
DANVILLE       CLOUDY    44  18  35 W17G28    30.12S
SOUTH BOSTON*  PTSUNNY   45  13  27 NW20G31   30.10S
MARTINSVILLE   PTSUNNY   43  16  33 NW18G33   30.15S
ROANOKE        PTSUNNY   37  16  42 W29G35    30.15R WCI  25
BLACKSBURG     CLOUDY    30  18  60 W17G32    30.14R WCI  18
DUBLIN*        CLOUDY    33  19  56 NW18G37   30.14R WCI  22
MARION*        LGT SNOW  31  21  66 W24G38    30.16R WCI  17
HILLSVILLE*    CLOUDY    32  17  55 NW21G35   30.09R WCI  20
RICHLANDS*     LGT SNOW  25  20  82 NW12G23   30.20R WCI  14
WISE*          FLURRIES  30  21  69 NW13G18   30.24S WCI  20
ABINGDON*      CLOUDY    33  20  58 NW9       30.25S
$$

MDZ021>025-VAZ099-100-301800-
SOUTHERN MARYLAND AND THE DELMARVA PENINSULA

CITY           SKY/WX    TMP DP  RH WIND       PRES   REMARKS
PATUXENT RIVER PTSUNNY   38  27  64 NW21G26   30.01S
BAY BRIDGE APT   N/A     41  23  48 NW17G23   29.99F
LEONARDTOWN    CLOUDY    37  28  70 NW9       30.03F
DOVER          PTSUNNY   42  24  50 NW23G31   29.93F
GEORGETOWN     PTSUNNY   43  21  41 NW12G23   29.94F
EASTON         MOSUNNY   45  25  45 NW22G32   30.00F
CAMBRIDGE      MOSUNNY   43  23  45 NW15G24   29.98F
SALISBURY      MOSUNNY   45  20  36 NW17G33   29.95F
OCEAN CITY     PTSUNNY   43  23  45 N21G31    29.94F
WALLOPS ISLAND PTSUNNY   42  22  44 N17G26    29.96F
ACCOMACK*      MOSUNNY   43  28  56 NW13G24   29.99S
$$

NCZ012>017-030>032-301800-
NORTH CENTRAL AND EASTERN NORTH CAROLINA

CITY           SKY/WX    TMP DP  RH WIND       PRES   REMARKS
ROANOKE RAPIDS CLOUDY    46  23  39 NW9G17    30.06S
RALEIGH        PTSUNNY   45  18  34 NW13G22   30.11S
ELIZABETH CITY CLOUDY    43  30  60 N15G23    30.02R
AHOSKIE*       CLOUDY    44  23  42 NW6       30.04S
EDENTON*       CLOUDY    44  34  68 N10       30.03S
CURRITUCK*     CLOUDY    42  29  58 NW13G21   30.02S
KILL DEVIL HLS CLOUDY    41  35  80 NW9       29.99S
MANTEO         CLOUDY    39  36  87 N9        30.01S
CAPE HATTERAS  CLOUDY    41  36  82 N12G22    29.99F
TARBORO*       CLOUDY    48  24  38 NW16G25   30.07S
GOLDSBORO      MOSUNNY   48  28  46 NW14G25   30.07R
WASHINGTON     CLOUDY    46  26  46 NW13G22   30.05R
GREENVILLE     PTSUNNY   46  25  42 N12G22    30.07S
NEW BERN       CLOUDY    51  28  41 NW12G24   30.04S
WILMINGTON     MOSUNNY   52  30  43 NW21G26   30.06S
$$

VAZ048-301800-
ELSEWHERE

CITY           SKY/WX    TMP DP  RH WIND       PRES   REMARKS
HARRISBURG PA  CLOUDY    34  23  64 NW18G29   29.99R WCI  23
BALTIMORE      NOT AVBL
ANNAPOLIS      CLOUDY    40  20  44 NW18G26   30.00S
ANDREWS AFB    PTSUNNY   36  22  56 NW23G33   30.01F WCI  24
PHILADELPHIA   PTSUNNY   39  20  46 NW24G32   29.93F
HENDERSON NC   MOSUNNY   45  14  28 NW13G24   30.09S
GREENSBORO     MOSUNNY   44  15  31 NW23G33   30.12F
ROCKY MOUNT    MOSUNNY   48  20  32 NW22G31   30.08S
$$

VAZ100-301800-
MARINE

STATION/POSITION TIME  TEMP    WIND        PRES    WAVE   SWELL
                       AIR SEA DIR/SP/G            HT/PER HT/PER
                 (UTC) (F)     (DEG/KT/KT) (MB)    (FT/S) (FT/S)
BRANDYWINE LGT   1600   37 36  330/ 17/ 20 1014.1S
CAPE MAY NJ      1600   38 37              1013.5S
LEWES DE         1600   38 36  330/ 20/ 24 1014.0F
15NM E FENWICK I 1700   38 40              1012.8F   5/ 5
OCEAN-CITY-INLET 1600   40 37  340/ 17/ 22 1013.9F
WACHAPREAGUE VA  1600   40 36  310/  8/ 15 1015.7R
THOMAS POINT MD  1700   40 36  320/ 22/ 25 1016.2F
GOOSES REEF MD   1600   39     VRB 16/ 23  1015.2R
COVE POINT MD    1600   38     340/ 26/ 31 1015.9S
SOLOMONS ISLAND  1600      37                N/A
BISHOPS HEAD MD  1600   40 35  310/ 19/ 24   N/A
PINEY POINT MD   1600          340/ 23/ 25   N/A
POTOMAC MD       1600   41     350/ 17/ 23 1015.5R
CAMBRIDGE MD     1600   40 35  310/ 12/ 19 1015.5S
LEWISETTA VA     1600   41 37  340/ 11/ 15 1016.3F
RAPPAHANNOCK LGT 1600          330/ 17/ 19 1016.3F
STINGRAY PT      1600   42     330/ 21/ 25 1016.3F
YORK RVR RNG VA  1600   41     340/ 16/ 19 1015.6R
YORKTOWN VA      1600   41 39  320/ 10/ 15 1016.2F
JAMESTOWN VA     1600   41      10/ 12/ 19   N/A
DOMINION TERM VA 1600   42     360/ 10/ 16 1016.7R
KIPTOPEKE VA     1600      43  360/ 13/ 17   N/A
CHES BAY BRIDGE  1600   40 40  330/ 15/ 18 1015.8S
CAPE HENRY VA    1600   40     330/ 17/ 21 1014.9R
CHESAPEAKE LGHT  1600   40     340/ 23/ 27 1016.1S
WILLOUBY STN VA  1600   41     350/ 18/ 23 1016.9R
S CRANEY ISL VA  1600          350/ 12/ 15 1016.4R
CAPE HENRY BUOY  1600      42                N/A     2/ 2
1ST LANDING BUOY 1600   41     350/ 17/ 21 1015.7F
CAPE CHARLES BUO 1600      41                N/A     2/ 3   2/10
OFFSHORE WE BUOY 1600      43                N/A     3/ 3   2/11
64NM E OF VA BCH 1700   43 49  340/ 21/ 27 1013.4F   6/ 5   2/11
DUCK PIER NC     1600   39 44  340/ 10/ 11 1014.7F
44100 DUCK FRF   1600      44                N/A     3/ 4   2/11
44056 DUCK FRF   1600      44                N/A     2/11
OREGON INLET NC  1600   39 41  360/ 12/ 16 1015.7S
HATTERAS NC      1600   42 46  360/ 21/ 25 1015.9R


USA.gov is the U.S. government's official web portal to all federal, state and local government web resources and services.